Location: Broekland
(52.3610°N, 6.2005°E)
Time: 00:14:42
(UTC+00:00)

Cosmos 405 Rocket - Pass Details

Date: 19 May 2025
Orbit: 413 x 447 km, 81.2° (Epoch: 23 June)

Event Time Altitude Azimuth Distance (km) Brightness Sun altitude
Rises 21:37:41 0° 352° (N) 2,466 7.6 -13.5°
Reaches altitude 10° 21:39:52 10° 1° (N) 1,583 6.2 -13.7°
Maximum altitude 21:43:07 37° 71° (ENE) 705 3.3 -13.9°
Enters shadow 21:44:40 23° 123° (ESE) 976 3.6 -14.0°
